GFSSE_850_dewp_156.txt.gz
Dewpoint
16 15 12 12 11 11 10 10 9 9 7 5 4 7 10 11 10 10 10 10 9 8 7 9 10 10 9 9 10 9 10 9 9 9 9 9 9 9 9 10 13 13 10
16 14 12 12 12 11 11 10 10 9 9 7 5 5 7 10 10 10 11 10 10 9 8 9 10 9 9 8 8 8 10 9 9 9 9 8 8 9 9 11 12 11 10
15 14 13 12 12 11 11 11 11 10 9 9 7 7 6 8 10 10 11 11 10 10 10 9 9 9 8 8 9 8 9 9 9 9 9 12 11 10 9 10 13 11 10
15 15 13 12 12 11 11 11 11 11 10 10 9 8 8 8 9 11 11 10 10 9 9 8 8 9 8 8 8 8 10 9 9 9 12 12 15 12 9 9 11 12 11
14 13 13 12 12 12 12 12 11 11 11 10 10 9 8 10 10 11 11 10 9 9 8 8 8 8 7 7 7 8 9 9 9 9 11 14 13 12 11 10 10 10 10
11 14 13 14 13 13 13 13 13 12 11 11 10 10 10 10 10 9 9 9 8 8 8 9 9 7 6 7 7 9 9 9 9 8 11 14 13 10 12 10 10 10 10
13 14 14 14 14 13 13 12 13 13 13 12 11 11 10 10 10 10 8 8 8 8 8 7 7 7 7 8 8 9 9 9 9 8 13 13 13 11 11 11 10 10 10
12 12 12 11 11 10 9 8 10 12 12 13 12 12 11 11 11 11 10 9 8 8 9 8 8 8 8 8 8 9 10 9 9 7 12 12 12 12 11 10 11 10 10
9 9 7 6 4 3 3 3 5 7 8 10 11 12 12 12 12 12 11 11 11 10 9 9 9 8 8 8 8 8 9 10 10 8 10 12 9 9 10 10 10 11 10
-6 -8 -10 -11 -12 -13 -13 -12 -12 -12 -12 -11 -6 1 3 11 12 11 12 12 12 11 11 10 9 9 8 8 8 8 8 9 9 9 10 11 11 11 11 11 9 11 10
-7 -11 -13 -15 -15 -15 -15 -14 -14 -14 -14 -14 -14 -14 -14 -14 -10 -1 9 12 12 12 12 12 11 10 9 8 7 7 8 7 7 8 7 10 11 11 10 9 9 10 11
-7 -12 -14 -15 -14 -14 -14 -13 -13 -13 -13 -13 -13 -13 -13 -13 -12 -12 -13 -14 0 11 12 12 12 12 11 9 7 7 7 6 7 7 10 11 10 11 11 11 8 10 10
-3 -9 -11 -12 -12 -12 -12 -12 -13 -12 -12 -12 -12 -12 -13 -13 -12 -12 -12 -12 -12 -8 6 12 12 12 13 11 9 8 6 11 11 8 8 11 10 11 10 11 9 9 10
-1 -5 -9 -11 -11 -11 -11 -11 -11 -11 -11 -11 -10 -10 -10 -11 -11 -11 -11 -11 -10 -9 -7 4 12 13 14 14 13 10 9 11 12 10 8 11 10 10 10 10 8 9 9
-2 -4 -8 -10 -10 -10 -10 -10 -10 -9 -9 -9 -8 -8 -9 -9 -9 -10 -10 -10 -10 -9 -5 -1 4 8 13 13 13 12 11 11 13 12 11 10 10 10 10 10 8 9 9
-2 -2 -6 -8 -9 -9 -9 -9 -8 -8 -8 -7 -7 -5 -5 -5 -6 -6 -7 -7 -7 -5 -3 1 3 4 4 13 13 13 12 11 10 12 11 11 11 11 10 10 8 8 8
-3 -2 -4 -6 -7 -8 -8 -7 -6 -6 -6 -5 -3 -2 -2 -2 -1 -2 -3 -4 -3 -1 -2 -2 -2 2 4 0 11 13 13 12 12 11 12 9 9 11 11 10 9 7 8
-2 -2 -3 -5 -6 -7 -7 -7 -6 -4 -4 -3 -2 -2 0 0 -0 -1 -2 -3 -3 -2 -1 -2 0 3 5 6 5 9 13 12 12 11 11 12 11 10 11 11 10 7 8
-2 -2 -3 -5 -7 -7 -7 -6 -5 -3 -3 -2 -2 -1 -1 -1 0 0 0 -0 -2 -3 -3 -2 -1 4 5 4 7 7 9 12 12 12 11 11 12 11 11 10 10 9 7
-1 -2 -3 -5 -6 -6 -6 -5 -5 -5 -4 -3 -1 -1 -1 -1 -1 -1 -2 -1 -1 -0 1 1 1 3 5 6 6 6 7 8 10 12 12 11 11 12 12 9 11 10 8
-1 -1 -2 -3 -4 -5 -5 -5 -4 -4 -3 -2 -2 -2 -2 -2 -2 -2 -2 -2 -1 -1 -1 0 1 2 2 6 6 6 4 2 5 9 11 12 11 11 11 11 9 12 10
-0 -1 -1 -1 -3 -4 -5 -3 -3 -3 -3 -3 -3 -3 -3 -3 -3 -3 -3 -3 -2 -2 -2 -1 0 0 2 2 4 6 7 7 7 5 6 9 11 12 11 12 9 11 12
-1 -1 -1 -1 -4 -6 -7 -4 -3 -3 -3 -3 -4 -4 -4 -4 -4 -4 -4 -3 -2 -1 -1 -0 -0 -0 1 2 3 4 7 7 7 8 4 4 7 9 12 12 10 10 10
-1 -1 -2 -2 -4 -8 -8 -4 -3 -3 -3 -4 -4 -4 -4 -5 -5 -5 -5 -3 -2 -2 -1 -1 -0 -0 0 1 2 3 4 6 7 9 8 7 9 10 12 10 13 10 10
-2 -1 -2 -3 -5 -10 -7 -4 -4 -4 -3 -4 -4 -4 -5 -5 -6 -5 -5 -4 -3 -2 -1 -1 -0 0 1 1 1 2 3 4 6 7 8 10 10 10 10 10 7 9 11
-1 -2 -2 -3 -5 -10 -9 -8 -7 -6 -4 -4 -4 -4 -5 -5 -5 -6 -6 -5 -4 -3 -2 -1 -1 -0 1 1 1 2 2 3 5 6 7 9 9 9 11 10 8 4 10

GFSSE_850_dewp_159.txt.gz
Dewpoint
15 13 12 11 10 10 10 9 9 9 7 4 1 3 5 9 9 10 10 10 9 8 7 8 9 10 9 8 9 8 9 9 9 9 9 10 11 10 9 10 14 10 10
15 14 13 11 10 10 10 10 10 9 9 7 4 3 5 8 10 10 10 10 9 9 8 8 9 9 8 7 8 8 8 9 9 9 9 9 9 9 9 9 13 10 10
15 14 13 11 11 11 11 10 10 10 10 9 8 5 4 6 9 10 10 10 11 10 9 9 8 8 8 7 7 8 8 9 9 9 9 11 10 10 9 9 12 10 10
14 14 12 11 11 11 11 11 11 11 10 10 9 8 7 6 7 10 11 11 10 9 9 9 9 9 8 7 6 7 8 9 9 9 11 13 12 13 10 9 11 11 10
14 14 12 12 12 12 12 12 12 12 11 11 10 10 9 8 7 7 8 10 11 9 9 8 9 8 8 7 7 7 8 9 9 9 10 12 12 13 12 10 10 10 10
13 13 13 13 13 13 12 12 12 12 12 12 11 10 10 10 10 9 8 7 7 9 9 8 8 8 7 6 6 7 8 8 9 9 10 12 12 11 12 10 10 10 10
14 14 14 13 12 11 10 8 8 11 12 12 12 11 11 11 10 10 10 9 8 7 7 7 7 6 6 6 7 7 8 7 7 9 9 12 11 10 12 10 10 10 10
12 12 11 10 9 7 7 7 6 6 8 10 10 12 12 12 12 11 11 11 10 10 9 8 8 7 7 7 7 7 7 7 7 7 8 12 12 12 11 11 10 10 10
9 9 7 5 0 -4 -8 -9 -8 -8 -6 -2 2 8 10 12 12 12 12 12 11 11 11 11 10 9 8 7 6 6 6 6 6 6 7 11 13 13 11 11 10 9 10
-2 -4 -9 -12 -13 -14 -15 -14 -14 -14 -14 -14 -14 -14 -14 -13 -3 7 11 11 11 12 12 12 11 11 10 9 8 7 6 6 5 5 6 8 12 12 12 11 11 9 10
-9 -12 -14 -15 -15 -15 -15 -15 -14 -14 -13 -14 -14 -14 -14 -13 -13 -13 -14 -11 2 10 12 12 12 12 12 11 10 9 8 6 5 5 4 5 10 11 12 11 11 9 9
-6 -9 -12 -13 -13 -14 -14 -14 -13 -13 -12 -13 -13 -13 -13 -13 -13 -13 -12 -12 -12 -12 -11 3 11 12 12 12 11 10 9 7 6 5 4 5 6 10 11 11 11 11 8
-4 -6 -10 -12 -12 -12 -12 -12 -12 -12 -12 -11 -11 -11 -12 -12 -11 -11 -12 -12 -12 -11 -10 -9 -5 10 13 13 13 12 11 9 8 6 7 7 7 9 11 11 11 11 8
-3 -5 -8 -10 -10 -11 -11 -11 -11 -11 -11 -11 -10 -10 -10 -10 -10 -10 -10 -11 -11 -11 -11 -9 -7 -6 8 12 13 13 12 12 10 8 10 10 6 9 11 11 10 11 9
-3 -5 -7 -9 -9 -9 -9 -10 -10 -10 -10 -9 -8 -8 -9 -8 -9 -9 -10 -10 -9 -9 -10 -10 -10 -9 -6 1 10 13 13 13 12 10 10 11 8 10 10 10 10 11 9
-2 -4 -5 -7 -8 -8 -8 -8 -8 -8 -8 -8 -7 -6 -5 -7 -7 -8 -8 -8 -8 -8 -8 -8 -8 -6 -4 -0 -0 5 13 13 13 12 11 11 11 10 10 10 10 10 10
-3 -3 -4 -5 -7 -7 -7 -7 -7 -7 -6 -6 -6 -5 -5 -5 -5 -5 -5 -6 -6 -6 -6 -6 -6 -4 -3 -1 2 -0 -1 11 13 13 12 11 12 12 11 11 11 10 9
-3 -3 -3 -5 -5 -6 -6 -6 -6 -5 -5 -5 -4 -4 -4 -3 -4 -4 -5 -5 -5 -5 -5 -5 -5 -5 -4 -2 -1 -0 3 3 6 12 12 11 11 11 11 10 11 11 10
-3 -3 -3 -4 -5 -6 -6 -5 -5 -5 -5 -4 -3 -3 -2 -2 -2 -3 -3 -4 -4 -4 -4 -4 -4 -2 -3 -3 -2 0 2 4 4 6 11 12 11 11 11 11 10 11 11
-3 -2 -2 -3 -4 -5 -5 -6 -5 -5 -4 -4 -3 -2 -2 -2 -3 -3 -3 -3 -3 -2 -2 -2 -2 -2 -0 -1 -2 -1 1 3 4 4 3 11 12 11 11 11 12 10 10
-3 -2 -2 -3 -4 -6 -7 -7 -6 -5 -4 -4 -4 -4 -4 -4 -4 -4 -4 -4 -3 -2 -2 -1 -1 -1 -0 1 2 -0 1 3 2 0 1 1 10 12 11 11 11 12 11
-2 -2 -1 -3 -5 -9 -9 -6 -5 -4 -4 -4 -4 -4 -4 -4 -4 -4 -4 -4 -3 -3 -2 -1 -1 -1 -1 -0 1 2 2 2 3 2 2 -2 -2 8 11 12 11 11 12
-1 -2 -2 -4 -9 -13 -10 -5 -4 -5 -4 -4 -4 -4 -4 -4 -5 -5 -5 -5 -4 -3 -2 -1 -1 -1 -1 -0 0 1 3 5 6 6 7 7 5 -3 -0 9 11 12 12
-2 -3 -4 -5 -9 -17 -12 -8 -10 -7 -5 -4 -4 -4 -4 -5 -5 -5 -5 -5 -4 -3 -3 -2 -1 -1 -1 -1 0 0 1 2 4 4 3 7 10 10 10 5 6 9 11
-2 -2 -3 -4 -7 -17 -15 -14 -15 -12 -8 -8 -9 -7 -4 -4 -5 -5 -5 -5 -5 -4 -3 -3 -2 -1 -1 -1 -0 1 1 1 1 3 4 4 3 8 8 10 8 9 9
-1 -2 -3 -5 -8 -14 -19 -17 -16 -11 -13 -17 -21 -17 -6 -4 -4 -5 -5 -5 -5 -4 -4 -3 -2 -2 -1 -1 -0 -0 1 1 2 2 4 5 6 5 6 8 7 10 9

GFSSE_850_dewp_162.txt.gz
Dewpoint
15 13 12 11 10 9 9 9 9 8 7 3 -0 0 4 7 8 10 9 10 9 8 8 9 10 10 9 9 9 8 9 9 9 9 9 10 11 10 10 11 11 11 9
15 13 13 12 11 10 10 9 9 9 8 7 4 1 2 5 7 8 8 8 9 9 8 8 9 9 9 8 8 8 7 9 9 9 9 10 10 10 9 10 12 10 9
15 14 13 12 12 11 10 10 10 10 9 9 8 6 4 5 6 8 8 8 7 7 8 8 8 8 8 8 7 8 7 9 9 9 9 10 10 10 9 9 11 10 10
15 14 12 12 12 11 10 10 11 11 10 10 9 9 7 6 6 8 9 9 8 7 8 8 8 7 7 7 7 7 7 9 9 10 10 12 11 13 10 9 9 10 10
14 13 12 12 12 12 12 12 12 12 11 11 10 10 9 9 8 8 8 9 9 9 7 7 8 7 6 6 6 6 6 8 9 9 10 12 11 11 12 11 9 10 10
13 13 12 13 13 13 12 11 10 11 12 12 11 11 10 10 10 10 9 9 8 8 8 7 8 8 7 6 6 6 6 7 8 9 10 10 12 11 11 11 10 9 10
13 13 14 13 12 10 8 5 5 9 10 11 12 12 11 11 11 10 10 10 10 10 9 9 8 8 8 7 6 6 6 6 7 7 9 10 12 11 9 11 11 10 9
14 13 12 11 9 6 3 0 -2 -1 0 3 6 9 11 12 12 12 11 11 11 11 11 10 10 9 8 8 7 7 7 7 6 6 7 9 11 12 11 12 11 10 9
10 9 8 7 5 -1 -10 -13 -13 -14 -14 -13 -11 -5 -0 6 11 12 12 12 12 11 11 11 11 11 10 10 9 8 7 7 7 6 6 8 11 10 12 11 12 11 9
2 -1 -5 -9 -11 -13 -14 -15 -15 -15 -15 -15 -15 -14 -14 -14 -13 -10 0 9 12 12 12 12 12 12 12 12 11 10 9 7 6 6 6 6 10 12 12 11 11 11 9
-7 -9 -11 -11 -12 -14 -14 -14 -14 -14 -14 -14 -14 -14 -13 -14 -14 -13 -13 -12 -12 -7 2 10 12 12 12 13 13 12 11 10 8 6 5 5 7 9 12 11 12 12 10
-8 -10 -11 -11 -12 -13 -12 -12 -12 -12 -12 -12 -13 -13 -13 -13 -13 -13 -13 -13 -12 -11 -11 -11 -6 3 10 12 12 12 12 12 11 9 6 4 6 7 9 11 11 11 11
-5 -8 -8 -9 -10 -10 -11 -11 -11 -12 -11 -11 -11 -12 -12 -12 -12 -12 -12 -12 -11 -11 -11 -11 -11 -9 -7 5 9 12 12 12 12 12 10 7 5 6 10 11 11 11 11
-4 -5 -7 -8 -8 -9 -9 -9 -10 -10 -10 -9 -10 -11 -10 -10 -11 -11 -11 -10 -10 -11 -11 -11 -11 -11 -10 -7 2 5 10 13 13 12 12 10 8 10 8 11 12 11 11
-3 -5 -6 -8 -8 -8 -8 -8 -8 -9 -9 -9 -8 -9 -10 -10 -9 -10 -9 -9 -9 -10 -10 -10 -11 -11 -10 -9 -6 -1 5 8 13 13 12 11 10 10 10 10 11 11 11
-3 -4 -6 -7 -7 -7 -8 -8 -7 -7 -7 -7 -7 -8 -8 -8 -8 -8 -8 -8 -9 -9 -9 -10 -10 -11 -11 -10 -9 -6 -3 4 6 12 13 12 11 10 10 9 10 11 11
-3 -4 -5 -6 -6 -7 -7 -7 -7 -6 -6 -6 -6 -7 -7 -7 -7 -7 -7 -7 -7 -8 -8 -8 -8 -7 -8 -8 -8 -9 -7 -4 -1 4 8 13 12 10 10 12 11 11 11
-3 -4 -5 -5 -5 -5 -6 -6 -5 -6 -6 -6 -5 -5 -5 -5 -6 -6 -6 -6 -6 -7 -7 -6 -6 -6 -6 -6 -6 -7 -7 -6 -4 -2 -1 8 13 12 10 11 12 12 11
-4 -4 -5 -5 -5 -6 -6 -6 -5 -5 -5 -5 -5 -5 -4 -5 -5 -5 -5 -5 -5 -5 -5 -5 -5 -4 -4 -5 -5 -5 -6 -6 -6 -3 -1 -0 7 13 12 11 11 12 12
-4 -4 -5 -5 -5 -6 -6 -6 -5 -5 -5 -5 -5 -5 -5 -5 -5 -5 -5 -4 -4 -4 -4 -4 -3 -3 -2 -2 -3 -4 -5 -5 -5 -5 -5 -1 -1 5 12 12 11 11 11
-3 -4 -4 -4 -5 -8 -9 -8 -7 -6 -5 -5 -5 -5 -5 -5 -5 -5 -5 -5 -4 -4 -3 -3 -2 -1 -1 -0 -0 -1 -3 -4 -4 -4 -5 -4 -3 -1 3 12 13 11 11
-3 -3 -3 -5 -8 -12 -10 -8 -7 -6 -5 -5 -6 -6 -5 -5 -4 -4 -4 -4 -4 -4 -3 -2 -2 -1 -1 -0 -0 0 1 -1 2 3 4 4 5 3 -2 -2 7 12 11
-2 -2 -4 -6 -10 -15 -10 -10 -10 -9 -9 -12 -12 -7 -5 -4 -4 -4 -4 -4 -3 -3 -3 -2 -2 -1 -2 -1 -0 -0 1 3 2 2 7 5 6 8 8 8 6 6 8
-2 -3 -5 -6 -11 -18 -17 -18 -22 -21 -20 -20 -18 -11 -8 -5 -4 -4 -4 -4 -4 -4 -3 -2 -2 -2 -2 -2 -0 -0 0 1 1 2 1 1 4 4 5 7 9 10 9
-2 -3 -5 -6 -9 -20 -23 -23 -23 -20 -23 -27 -29 -18 -17 -8 -6 -4 -4 -4 -4 -4 -4 -4 -3 -2 -2 -2 -2 -1 -1 0 0 1 2 2 2 3 6 6 8 8 9
-2 -2 -4 -6 -10 -15 -22 -26 -23 -22 -28 -30 -31 -31 -27 -20 -12 -8 -4 -4 -4 -5 -5 -4 -4 -4 -3 -3 -2 -1 -1 -1 -0 1 2 2 2 3 1 3 5 7 8

GFSSE_850_dewp_165.txt.gz
Dewpoint
14 11 10 9 9 9 8 8 8 7 5 1 2 5 8 9 9 10 9 10 9 8 8 9 10 10 9 9 9 9 8 9 9 9 9 10 10 10 9 10 11 11 11
14 11 11 9 10 10 9 9 9 9 8 7 3 2 4 7 9 9 9 10 9 9 8 8 9 9 8 8 8 8 8 9 9 10 9 9 10 10 10 10 10 10 8
15 13 12 10 11 11 10 10 10 9 9 9 8 6 4 4 6 8 8 8 9 9 9 8 8 7 8 8 7 7 7 9 9 9 10 9 10 10 10 11 11 10 9
15 14 13 12 11 11 11 10 10 10 10 10 9 8 8 6 5 6 8 9 9 8 8 8 8 7 7 8 7 6 7 8 9 9 10 11 10 12 11 10 10 11 10
14 14 13 13 12 11 12 12 11 10 10 10 10 10 9 9 8 8 8 9 9 9 9 8 8 8 8 7 7 6 7 7 8 9 10 11 10 11 11 11 10 10 10
13 13 13 13 12 13 13 11 10 7 8 9 10 10 10 10 10 10 9 9 9 9 8 9 8 8 8 7 7 6 6 7 8 9 9 10 11 11 11 12 10 10 10
13 13 14 13 13 12 11 8 5 5 7 7 10 11 11 11 11 10 10 10 10 10 10 9 9 8 8 8 6 6 7 7 7 8 9 10 10 11 11 11 11 10 10
13 14 14 13 11 8 7 5 2 1 2 3 5 7 9 10 11 11 11 11 11 11 11 11 11 10 9 9 9 8 7 7 7 7 8 9 9 10 11 9 12 11 10
13 12 11 10 8 7 3 -4 -8 -11 -12 -13 -12 -10 -8 -4 3 9 12 12 12 11 11 12 11 11 11 11 10 9 9 9 7 6 7 7 9 11 11 11 11 11 11
11 9 8 5 0 -8 -11 -13 -14 -14 -14 -14 -14 -14 -13 -13 -13 -13 -13 -9 3 10 11 12 12 12 12 11 12 11 10 10 9 7 6 6 7 8 11 11 11 11 11
4 -1 -5 -9 -11 -12 -13 -13 -13 -13 -13 -13 -13 -13 -13 -13 -13 -13 -13 -13 -12 -12 -12 -9 3 11 12 12 12 12 12 12 10 9 7 6 6 7 9 11 11 11 11
-7 -9 -10 -11 -11 -11 -11 -11 -12 -12 -12 -12 -12 -12 -12 -12 -12 -12 -12 -12 -12 -12 -11 -12 -12 -10 -6 -0 6 11 12 12 12 12 10 8 6 6 7 9 10 12 11
-6 -7 -8 -9 -9 -10 -9 -10 -11 -11 -11 -12 -11 -12 -11 -11 -11 -11 -11 -11 -10 -10 -10 -11 -11 -11 -11 -10 -9 -5 3 11 12 13 12 11 9 7 6 7 9 10 11
-3 -5 -7 -9 -10 -9 -9 -9 -10 -10 -10 -10 -10 -11 -11 -11 -11 -10 -10 -10 -10 -10 -10 -10 -10 -10 -11 -11 -11 -11 -8 -1 5 11 13 13 12 10 8 7 8 10 10
-3 -5 -6 -7 -8 -8 -9 -9 -9 -9 -9 -9 -9 -9 -9 -9 -9 -9 -9 -9 -9 -9 -9 -9 -10 -10 -10 -11 -10 -10 -11 -9 -3 3 3 12 13 12 10 9 10 9 10
-3 -4 -5 -6 -7 -8 -8 -9 -9 -9 -8 -8 -8 -8 -8 -8 -8 -8 -8 -9 -9 -9 -9 -9 -9 -10 -10 -10 -11 -11 -11 -10 -9 -7 1 1 5 12 12 10 10 11 10
-3 -4 -5 -6 -7 -7 -8 -8 -8 -8 -8 -8 -7 -7 -7 -7 -7 -7 -7 -7 -8 -8 -9 -8 -8 -8 -9 -9 -9 -10 -10 -10 -9 -9 -7 -2 -2 -1 12 12 10 11 11
-3 -4 -6 -6 -7 -7 -7 -7 -7 -7 -7 -6 -6 -7 -6 -6 -6 -6 -6 -6 -6 -6 -6 -6 -6 -7 -7 -7 -8 -8 -8 -8 -9 -9 -8 -7 -6 -5 -5 12 11 11 12
-4 -5 -6 -6 -6 -6 -6 -6 -6 -6 -6 -6 -6 -6 -6 -7 -7 -7 -7 -6 -6 -6 -6 -5 -5 -4 -4 -5 -5 -5 -6 -6 -7 -7 -8 -8 -6 -5 -5 -6 12 11 11
-4 -5 -5 -5 -5 -6 -7 -7 -7 -6 -6 -6 -7 -8 -8 -7 -6 -6 -5 -5 -5 -5 -5 -5 -4 -4 -3 -3 -3 -4 -4 -4 -5 -5 -5 -6 -7 -5 -2 -2 6 12 11
-4 -4 -4 -5 -6 -9 -9 -8 -6 -7 -7 -9 -12 -9 -8 -7 -6 -5 -4 -4 -4 -3 -3 -3 -2 -3 -2 -2 -1 -2 -3 -2 -1 2 2 -0 -2 -3 -2 -1 0 2 11
-3 -3 -4 -5 -8 -11 -10 -9 -10 -9 -11 -15 -14 -12 -10 -7 -7 -5 -4 -4 -3 -3 -3 -2 -2 -2 -2 -1 -2 -1 1 -0 3 3 5 5 5 6 7 5 4 1 -0
-2 -3 -4 -6 -11 -15 -14 -15 -14 -15 -18 -23 -22 -17 -14 -10 -9 -7 -4 -4 -4 -3 -3 -3 -2 -2 -3 -2 -1 -2 -0 0 -0 2 4 3 4 4 5 7 8 9 8
-2 -3 -5 -6 -12 -19 -18 -18 -20 -21 -26 -30 -29 -23 -22 -18 -15 -11 -7 -5 -4 -4 -4 -3 -3 -3 -3 -3 -2 -1 -1 -1 -0 0 1 -0 0 1 2 5 6 7 8
-2 -3 -4 -6 -9 -16 -22 -23 -22 -22 -28 -30 -31 -31 -31 -27 -25 -21 -13 -8 -6 -4 -4 -4 -4 -4 -4 -4 -4 -3 -2 -1 -1 0 1 1 1 1 1 2 3 5 6
-3 -3 -3 -5 -9 -14 -20 -26 -26 -28 -30 -32 -33 -34 -34 -34 -33 -30 -24 -18 -13 -5 -4 -4 -4 -4 -4 -4 -4 -4 -4 -5 -3 -2 -2 -1 0 -0 0 1 3 3 3